Content
SEND FEEDBACK

Daily
Averages
Monthly
Summary
United States of America

OKOLONA, MISSISSIPPI


Home > North America > United States > Mississippi
Elevation: 33 feet     Latitude: 34 00N     Longitude: 088 43W

WEATHER
 
SELECT A DAY
Number of Records: 57,595;   Date Range: 1/10/12 - 7/21/14
 
SHARE

PRINT THIS DATA

[ ← Previous Day ]
WEATHER ALMANAC - JANUARY 31, 2013
[ Next Day → ]
[ °C ]   °F
Weather ElementAverageHighLow
Temperature43 °F55.4 °F (1:35 pm)32 °F (5:15 am)
Dewpoint36.2 °F44.6 °F (3:35 pm)30.2 °F (2:35 am)
Humidity78 %93 % (5:15 am)62 % (5:15 pm)
Barometer30.17 in30.25 in (11:35 pm)30.08 in (12:35 am)
Wind Speed6 mph13.8 mph (3:55 pm)
Wind Gust17.3 mph (1:35 pm)
Weather ElementAverage
Visibility9.5 mi
Wind DirectionSW (230.3 °)

Weather ElementTotal
Precipitation---
Heating Degree Days21.3 (Base 65)
Averaged from 68 records on January 31, 2013
WEATHER CONDITIONS BREAKOUT
WIND DIRECTION BREAKOUT
WEATHER BY HOUR - JANUARY 31, 2013
[ °C ]   °F
Local TimeTemperatureDewpointHumidityBarometerVisibilityWind DirectionWind SpeedGust SpeedPrecipitationEventsConditions
12:35 AM37.4 °F32.0 °F81 %30.08 in10.0 miWNW (290°)10.4 mph16.1 mphClear
12:55 AM37.4 °F32.0 °F81 %30.09 in10.0 miWNW (290°)9.2 mphClear
1:15 AM37.4 °F32.0 °F81 %30.09 in10.0 miWNW (290°)8.1 mphClear
1:35 AM35.6 °F32.0 °F87 %30.08 in10.0 miWNW (290°)5.8 mphClear
1:55 AM35.6 °F32.0 °F87 %30.09 in10.0 miWNW (290°)4.6 mphClear
2:15 AM35.6 °F32.0 °F87 %30.09 in10.0 miWNW (290°)5.8 mphClear
2:35 AM35.6 °F30.2 °F81 %30.09 in10.0 miWNW (290°)3.5 mphClear
2:55 AM35.6 °F30.2 °F81 %30.09 in10.0 miCalmClear
3:15 AM33.8 °F30.2 °F87 %30.10 in10.0 miCalmClear
3:35 AM33.8 °F30.2 °F87 %30.11 in10.0 miWest (260°)4.6 mphClear
3:55 AM33.8 °F30.2 °F87 %30.11 in10.0 miWest (260°)5.8 mphClear
4:15 AM33.8 °F30.2 °F87 %30.12 in10.0 miWest (260°)4.6 mphClear
4:35 AM33.8 °F30.2 °F87 %30.13 in10.0 miWest (260°)4.6 mphClear
4:55 AM33.8 °F30.2 °F87 %30.13 in10.0 miWSW (250°)3.5 mphClear
5:15 AM32.0 °F30.2 °F93 %30.13 in10.0 miWSW (250°)4.6 mphClear
5:35 AM33.8 °F30.2 °F87 %30.15 in10.0 miWest (260°)4.6 mphClear
5:55 AM32.0 °F30.2 °F93 %30.14 in10.0 miWest (260°)4.6 mphClear
6:15 AM32.0 °F30.2 °F93 %30.16 in10.0 miWSW (240°)4.6 mphClear
6:55 AM32.0 °F30.2 °F93 %30.17 in9.0 miSW (230°)4.6 mphClear
7:15 AM32.0 °F30.2 °F93 %30.19 in8.0 miSW (230°)3.5 mphClear
7:35 AM33.8 °F32.0 °F93 %30.19 in8.0 miNW (310°)3.5 mphClear
8:15 AM37.4 °F33.8 °F87 %30.19 in9.0 miNW (320°)6.9 mphClear
8:35 AM39.2 °F33.8 °F81 %30.19 in9.0 miNW (320°)8.1 mphClear
8:55 AM39.2 °F35.6 °F87 %30.21 in8.0 miNW (320°)5.8 mphClear
9:15 AM42.8 °F35.6 °F76 %30.22 in7.0 miWNW (300°)8.1 mphClear
9:35 AM44.6 °F37.4 °F76 %30.22 in9.0 miNW (320°)6.9 mphClear
9:55 AM44.6 °F37.4 °F76 %30.22 in9.0 miNNW (330°)10.4 mphClear
10:15 AM46.4 °F37.4 °F71 %30.23 in9.0 miNNW (340°)4.6 mphClear
10:35 AM48.2 °F39.2 °F71 %30.24 in8.0 miWest (280°)4.6 mphClear
10:55 AM48.2 °F39.2 °F71 %30.24 in9.0 miWest (260°)8.1 mphClear
11:15 AM50.0 °F39.2 °F66 %30.24 in8.0 miWest (270°)9.2 mphClear
11:35 AM50.0 °F39.2 °F66 %30.23 in9.0 miWest (280°)8.1 mphClear
11:55 AM51.8 °F41.0 °F67 %30.22 in9.0 miWSW (250°)8.1 mphClear
12:15 PM51.8 °F42.8 °F71 %30.21 in9.0 miSW (230°)5.8 mphClear
12:35 PM53.6 °F42.8 °F67 %30.21 in10.0 miWSW (240°)6.9 mphClear
12:55 PM53.6 °F42.8 °F67 %30.20 in9.0 miWest (270°)5.8 mphClear
1:15 PM53.6 °F42.8 °F67 %30.20 in9.0 miWSW (250°)9.2 mphClear
1:35 PM55.4 °F42.8 °F63 %30.20 in9.0 miWest (270°)10.4 mph17.3 mphClear
1:55 PM55.4 °F42.8 °F63 %30.19 in8.0 miWSW (240°)8.1 mph16.1 mphClear
2:15 PM55.4 °F42.8 °F63 %30.19 in9.0 miSW (230°)9.2 mphClear
2:35 PM55.4 °F42.8 °F63 %30.18 in9.0 miWSW (240°)9.2 mph16.1 mphClear
2:55 PM55.4 °F42.8 °F63 %30.17 in9.0 miWSW (240°)9.2 mphClear
3:15 PM55.4 °F42.8 °F63 %30.16 in9.0 miWSW (250°)10.4 mphClear
3:35 PM55.4 °F44.6 °F67 %30.16 in9.0 miSW (230°)6.9 mphClear
3:55 PM55.4 °F44.6 °F67 %30.15 in9.0 miSSW (210°)13.8 mph17.3 mphClear
4:15 PM55.4 °F42.8 °F63 %30.15 in9.0 miSW (220°)10.4 mphClear
4:35 PM55.4 °F42.8 °F63 %30.14 in10.0 miSW (220°)12.7 mph17.3 mphClear
4:55 PM53.6 °F42.8 °F67 %30.14 in10.0 miSW (220°)9.2 mphClear
5:15 PM53.6 °F41.0 °F62 %30.14 in10.0 miSW (220°)6.9 mphClear
5:35 PM50.0 °F39.2 °F66 %30.14 in10.0 miSSW (210°)6.9 mphClear
5:55 PM48.2 °F39.2 °F71 %30.14 in10.0 miSSW (210°)9.2 mphClear
6:15 PM48.2 °F39.2 °F71 %30.16 in10.0 miSW (230°)4.6 mphClear
6:35 PM46.4 °F37.4 °F71 %30.17 in10.0 miSW (230°)4.6 mphClear
6:55 PM46.4 °F37.4 °F71 %30.17 in10.0 miSW (230°)3.5 mphClear
7:15 PM44.6 °F35.6 °F71 %30.18 in10.0 miCalmClear
7:35 PM39.2 °F33.8 °F81 %30.17 in10.0 miCalmClear
7:55 PM37.4 °F33.8 °F87 %30.18 in10.0 miCalmClear
8:15 PM37.4 °F33.8 °F87 %30.18 in10.0 miSouth (170°)4.6 mphClear
8:35 PM37.4 °F35.6 °F93 %30.20 in10.0 miSSW (210°)3.5 mphClear
8:55 PM37.4 °F33.8 °F87 %30.20 in10.0 miSouth (190°)3.5 mphClear
9:15 PM37.4 °F33.8 °F87 %30.20 in10.0 miSouth (190°)4.6 mphClear
9:35 PM39.2 °F35.6 °F87 %30.21 in10.0 miSouth (190°)4.6 mphClear
9:55 PM37.4 °F33.8 °F87 %30.20 in10.0 miSouth (190°)4.6 mphClear
10:15 PM39.2 °F35.6 °F87 %30.20 in10.0 miSSW (200°)4.6 mphClear
10:35 PM39.2 °F35.6 °F87 %30.20 in10.0 miSSW (200°)4.6 mphClear
10:55 PM41.0 °F35.6 °F81 %30.20 in10.0 miSSW (210°)5.8 mphClear
11:35 PM41.0 °F35.6 °F81 %30.25 in10.0 miNNW (330°)8.1 mphClear
11:55 PM41.0 °F35.6 °F81 %30.24 in10.0 miCalmClear
Hourly data recorded from KM40, located miles away from Okolona, Mississippi







STORIES FROM OUR PARTNERS